,,,PA_Meas_PMT16A,,PR_Meas_QMR101_102,,RH_Meas_QMH101,,SR_Meas_QMS101,,TA_Meas_QMH101,,GenWind,,GenWind,
date,time,status,PA,status,PR,status,RH,status,SR,status,TA,status,DirAvg,status,SpdAvg,
2009-07-21, 00:00:05,VALID,1003.89,VALID,0,VALID,93.6688,VALID,0,VALID,22.0625,VALID,25,VALID,0.992969,
2009-07-21, 00:01:05,VALID,1003.84,VALID,0,VALID,93.7299,VALID,0,VALID,22.0625,VALID,54,VALID,1.01094,
2009-07-21, 00:02:05,VALID,1003.84,VALID,0,VALID,93.7528,VALID,0,VALID,22.1015,VALID,49,VALID,1.10312,
2009-07-21, 00:03:05,VALID,1003.81,VALID,0,VALID,93.5697,VALID,0,VALID,22.121,VALID,44,VALID,0.828516,
2009-07-21, 00:04:05,VALID,1003.78,VALID,0,VALID,93.5163,VALID,0,VALID,22.1405,VALID,47,VALID,0.519141,
2009-07-21, 00:05:05,VALID,1003.78,VALID,0,VALID,93.5239,VALID,0,VALID,22.1405,VALID,51,VALID,0.564844,
2009-07-21, 00:06:05,VALID,1003.74,VALID,0,VALID,93.4476,VALID,0,VALID,22.1422,VALID,48,VALID,0.442969,
2009-07-21, 00:07:05,VALID,1003.73,VALID,0,VALID,93.4323,VALID,0,VALID,22.1405,VALID,46,VALID,0.501953,
2009-07-21, 00:08:05,VALID,1003.73,VALID,0,VALID,93.4934,VALID,0,VALID,22.121,VALID,44,VALID,0.505469,
2009-07-21, 00:09:05,VALID,1003.71,VALID,0,VALID,93.4934,VALID,0,VALID,22.1617,VALID,44,VALID,0.476953,
2009-07-21, 00:10:05,VALID,1003.71,VALID,0,VALID,93.4476,VALID,0,VALID,22.121,VALID,44,VALID,0.490234,
2009-07-21, 00:11:05,VALID,1003.69,VALID,0,VALID,93.4781,VALID,0,VALID,22.1227,VALID,44,VALID,0.550781,
2009-07-21, 00:12:05,VALID,1003.71,VALID,0,VALID,93.4628,VALID,0,VALID,22.082,VALID,44,VALID,0.674219,
2009-07-21, 00:13:05,VALID,1003.7,VALID,0,VALID,93.4781,VALID,0,VALID,22.082,VALID,42,VALID,0.526953,
2009-07-21, 00:14:05,VALID,1003.67,VALID,0,VALID,93.4628,VALID,0,VALID,22.0837,VALID,42,VALID,0.305469,
2009-07-21, 00:15:05,VALID,1003.65,VALID,0,VALID,93.44,VALID,0,VALID,22.0447,VALID,42,VALID,0.273438,
2009-07-21, 00:16:05,VALID,1003.66,VALID,0,VALID,93.4628,VALID,0,VALID,22.0235,VALID,42,VALID,0.322266,
2009-07-21, 00:17:05,VALID,1003.63,VALID,0,VALID,93.5391,VALID,0,VALID,22.004,VALID,42,VALID,0.435547,
2009-07-21, 00:18:05,VALID,1003.65,VALID,0,VALID,93.5697,VALID,0,VALID,22.004,VALID,42,VALID,0.532031,
2009-07-21, 00:19:05,VALID,1003.63,VALID,0,VALID,93.5468,VALID,0,VALID,22.004,VALID,42,VALID,0.507422,
2009-07-21, 00:20:05,VALID,1003.57,VALID,0,VALID,93.5773,VALID,0,VALID,21.9845,VALID,42,VALID,0.569922,
2009-07-21, 00:21:05,VALID,1003.55,VALID,0,VALID,93.6154,VALID,0,VALID,22.0057,VALID,42,VALID,0.532031,
2009-07-21, 00:22:05,VALID,1003.52,VALID,0,VALID,93.707,VALID,0,VALID,22.0252,VALID,42,VALID,0.616016,
2009-07-21, 00:23:05,VALID,1003.51,VALID,0,VALID,93.7909,VALID,0,VALID,22.004,VALID,42,VALID,0.553516,
2009-07-21, 00:24:05,VALID,1003.49,VALID,0,VALID,93.7909,VALID,0,VALID,22.0235,VALID,42,VALID,0.477344,
2009-07-21, 00:25:05,VALID,1003.46,VALID,0,VALID,93.8062,VALID,0,VALID,22.043,VALID,42,VALID,0.510156,
2009-07-21, 00:26:05,VALID,1003.47,VALID,0,VALID,93.7451,VALID,0,VALID,22.0447,VALID,42,VALID,0.632422,
2009-07-21, 00:27:05,VALID,1003.46,VALID,0,VALID,93.7909,VALID,0,VALID,22.043,VALID,42,VALID,0.68125,
2009-07-21, 00:28:05,VALID,1003.45,VALID,0,VALID,93.8214,VALID,0,VALID,22.0625,VALID,42,VALID,0.677344,
2009-07-21, 00:29:05,VALID,1003.45,VALID,0,VALID,93.7985,VALID,0,VALID,22.043,VALID,42,VALID,0.676172,
2009-07-21, 00:30:05,VALID,1003.46,VALID,0,VALID,93.7604,VALID,0,VALID,22.0642,VALID,42,VALID,0.623828,
2009-07-21, 00:31:05,VALID,1003.47,VALID,0,VALID,93.7909,VALID,0,VALID,22.0625,VALID,42,VALID,0.564844,
2009-07-21, 00:32:05,VALID,1003.48,VALID,0,VALID,93.7833,VALID,0,VALID,22.0625,VALID,42,VALID,0.417188,
2009-07-21, 00:33:05,VALID,1003.48,VALID,0,VALID,93.8062,VALID,0,VALID,22.0625,VALID,42,VALID,0.381641,
2009-07-21, 00:34:05,VALID,1003.49,VALID,0,VALID,93.8901,VALID,0,VALID,22.1227,VALID,42,VALID,0.414844,
2009-07-21, 00:35:05,VALID,1003.47,VALID,0,VALID,93.9054,VALID,0,VALID,22.1015,VALID,42,VALID,0.366797,
2009-07-21, 00:36:05,VALID,1003.48,VALID,0,VALID,93.9511,VALID,0,VALID,22.121,VALID,42,VALID,0.287891,
2009-07-21, 00:37:05,VALID,1003.48,VALID,0,VALID,93.9664,VALID,0,VALID,22.1617,VALID,42,VALID,0.191797,
2009-07-21, 00:38:05,VALID,1003.46,VALID,0,VALID,93.9664,VALID,0,VALID,22.1405,VALID,67,VALID,0.460547,
2009-07-21, 00:39:05,VALID,1003.43,VALID,0,VALID,94.0122,VALID,0,VALID,22.1795,VALID,100,VALID,0.494141,
2009-07-21, 00:40:05,VALID,1003.43,VALID,0,VALID,94.0656,VALID,0,VALID,22.2186,VALID,100,VALID,0.524219,
2009-07-21, 00:41:05,VALID,1003.41,VALID,0,VALID,94.0732,VALID,0,VALID,22.2381,VALID,100,VALID,0.252344,
2009-07-21, 00:42:05,VALID,1003.41,VALID,0,VALID,94.0351,VALID,0,VALID,22.2381,VALID,100,VALID,0.321094,
2009-07-21, 00:43:05,VALID,1003.4,VALID,0,VALID,93.9969,VALID,0,VALID,22.2771,VALID,100,VALID,0.214062,
2009-07-21, 00:44:05,VALID,1003.41,VALID,0,VALID,93.9588,VALID,0,VALID,22.2771,VALID,100,VALID,0.133594,
2009-07-21, 00:45:05,VALID,1003.44,VALID,0,VALID,93.9283,VALID,0,VALID,22.2983,VALID,100,VALID,0,
2009-07-21, 00:46:05,VALID,1003.42,VALID,0,VALID,93.8825,VALID,0,VALID,22.2983,VALID,100,VALID,0,
2009-07-21, 00:47:05,VALID,1003.42,VALID,0,VALID,93.852,VALID,0,VALID,22.2788,VALID,100,VALID,0,
2009-07-21, 00:48:05,VALID,1003.42,VALID,0,VALID,93.8672,VALID,0,VALID,22.2771,VALID,100,VALID,0,
2009-07-21, 00:49:05,VALID,1003.43,VALID,0,VALID,93.8596,VALID,0,VALID,22.2771,VALID,100,VALID,0,
2009-07-21, 00:50:05,VALID,1003.39,VALID,0,VALID,93.8291,VALID,0.112286,VALID,22.2771,VALID,100,VALID,0.257813,
2009-07-21, 00:51:05,VALID,1003.37,VALID,0,VALID,93.8672,VALID,0,VALID,22.2771,VALID,100,VALID,0.192188,
2009-07-21, 00:52:05,VALID,1003.35,VALID,0,VALID,93.8443,VALID,0,VALID,22.2966,VALID,100,VALID,0.421875,
2009-07-21, 00:53:05,VALID,1003.31,VALID,0,VALID,93.8977,VALID,0,VALID,22.3161,VALID,100,VALID,0.514453,
2009-07-21, 00:54:05,VALID,1003.28,VALID,0,VALID,93.7833,VALID,0,VALID,22.3161,VALID,100,VALID,0.221094,
2009-07-21, 00:55:05,VALID,1003.24,VALID,0,VALID,93.8596,VALID,0,VALID,22.3356,VALID,100,VALID,0.55625,
2009-07-21, 00:56:05,VALID,1003.22,VALID,0,VALID,93.8596,VALID,0,VALID,22.3551,VALID,100,VALID,0.519531,
2009-07-21, 00:57:05,VALID,1003.2,VALID,0,VALID,93.8367,VALID,0,VALID,22.3746,VALID,100,VALID,0.531641,
2009-07-21, 00:58:05,VALID,1003.2,VALID,0,VALID,93.6841,VALID,0,VALID,22.3551,VALID,90,VALID,0.565234,
2009-07-21, 00:59:05,VALID,1003.17,VALID,0,VALID,93.5544,VALID,0,VALID,22.3356,VALID,90,VALID,0.672656,
2009-07-21, 01:00:05,VALID,1003.17,VALID,0,VALID,93.4628,VALID,0,VALID,22.3373,VALID,90,VALID,0.604688,
2009-07-21, 01:01:05,VALID,1003.16,VALID,0,VALID,93.3942,VALID,0,VALID,22.3161,VALID,90,VALID,0.617188,
2009-07-21, 01:02:05,VALID,1003.15,VALID,0,VALID,93.3713,VALID,0,VALID,22.2966,VALID,83,VALID,0.551172,
2009-07-21, 01:03:05,VALID,1003.11,VALID,0,VALID,93.3866,VALID,0,VALID,22.2966,VALID,75,VALID,0.629297,
2009-07-21, 01:04:05,VALID,1003.09,VALID,0,VALID,93.4094,VALID,0,VALID,22.2966,VALID,63,VALID,0.477734,
2009-07-21, 01:05:05,VALID,1003.09,VALID,0,VALID,93.4323,VALID,0,VALID,22.3178,VALID,63,VALID,0.471875,
2009-07-21, 01:06:05,VALID,1003.04,VALID,0,VALID,93.3713,VALID,0,VALID,22.2966,VALID,56,VALID,0.491016,
2009-07-21, 01:07:05,VALID,1003.07,VALID,0,VALID,93.44,VALID,0,VALID,22.2966,VALID,32,VALID,0.630469,
2009-07-21, 01:08:05,VALID,1003.05,VALID,0,VALID,93.4476,VALID,0,VALID,22.2966,VALID,32,VALID,0.5,
2009-07-21, 01:09:05,VALID,1003,VALID,0,VALID,93.4552,VALID,0,VALID,22.2966,VALID,32,VALID,0.361719,
2009-07-21, 01:10:05,VALID,1002.98,VALID,0,VALID,93.44,VALID,0,VALID,22.2966,VALID,32,VALID,0.330859,
2009-07-21, 01:11:05,VALID,1002.98,VALID,0,VALID,93.4323,VALID,0,VALID,22.3161,VALID,32,VALID,0.276563,
2009-07-21, 01:12:05,VALID,1002.97,VALID,0,VALID,93.4857,VALID,0,VALID,22.3178,VALID,32,VALID,0.250781,
2009-07-21, 01:13:05,VALID,1002.97,VALID,0,VALID,93.501,VALID,0,VALID,22.3161,VALID,32,VALID,0.196094,
2009-07-21, 01:14:05,VALID,1002.95,VALID,0,VALID,93.4781,VALID,0,VALID,22.2966,VALID,32,VALID,0.246484,
2009-07-21, 01:15:05,VALID,1002.96,VALID,0,VALID,93.5544,VALID,0,VALID,22.2771,VALID,62,VALID,0.424609,
2009-07-21, 01:16:05,VALID,1002.91,VALID,0,VALID,93.6994,VALID,0,VALID,22.3161,VALID,116,VALID,0.615625,
2009-07-21, 01:17:05,VALID,1002.93,VALID,0,VALID,93.7604,VALID,0,VALID,22.3551,VALID,121,VALID,0.509375,
2009-07-21, 01:18:05,VALID,1002.92,VALID,0,VALID,93.8138,VALID,0,VALID,22.3941,VALID,122,VALID,0.458203,
2009-07-21, 01:19:05,VALID,1002.88,VALID,0,VALID,93.8596,VALID,0,VALID,22.4331,VALID,122,VALID,0.577734,
2009-07-21, 01:20:05,VALID,1002.86,VALID,0,VALID,93.8596,VALID,0,VALID,22.4721,VALID,122,VALID,0.440234,
2009-07-21, 01:21:05,VALID,1002.87,VALID,0,VALID,93.852,VALID,0,VALID,22.5111,VALID,122,VALID,0.128906,
2009-07-21, 01:22:05,VALID,1002.84,VALID,0,VALID,93.7833,VALID,0,VALID,22.5111,VALID,122,VALID,0,
2009-07-21, 01:23:05,VALID,1002.85,VALID,0,VALID,93.7909,VALID,0,VALID,22.5323,VALID,122,VALID,0,
2009-07-21, 01:24:05,VALID,1002.84,VALID,0,VALID,93.7528,VALID,0,VALID,22.5306,VALID,122,VALID,0,
2009-07-21, 01:25:05,VALID,1002.83,VALID,0,VALID,93.6231,VALID,0,VALID,22.5306,VALID,122,VALID,0.376563,
2009-07-21, 01:26:05,VALID,1002.82,VALID,0,VALID,93.5544,VALID,0,VALID,22.4916,VALID,122,VALID,0.367188,
2009-07-21, 01:27:05,VALID,1002.8,VALID,0,VALID,93.501,VALID,0,VALID,22.4721,VALID,122,VALID,0.406641,
2009-07-21, 01:28:05,VALID,1002.8,VALID,0,VALID,93.4857,VALID,0,VALID,22.4526,VALID,122,VALID,0,
2009-07-21, 01:29:05,VALID,1002.82,VALID,0,VALID,93.5086,VALID,0,VALID,22.4721,VALID,122,VALID,0,
2009-07-21, 01:30:05,VALID,1002.78,VALID,0,VALID,93.6154,VALID,0,VALID,22.4721,VALID,122,VALID,0,
2009-07-21, 01:31:05,VALID,1002.78,VALID,0,VALID,93.5926,VALID,0,VALID,22.5128,VALID,121,VALID,0,
2009-07-21, 01:32:05,VALID,1002.76,VALID,0,VALID,93.5849,VALID,0,VALID,22.5111,VALID,100,VALID,0,
2009-07-21, 01:33:05,VALID,1002.77,VALID,0,VALID,93.4476,VALID,0,VALID,22.5909,VALID,96,VALID,0,
2009-07-21, 01:34:05,VALID,1002.72,VALID,0,VALID,93.2645,VALID,0,VALID,22.6087,VALID,96,VALID,0,
2009-07-21, 01:35:05,VALID,1002.73,VALID,0,VALID,93.1577,VALID,0,VALID,22.6282,VALID,96,VALID,0,
2009-07-21, 01:36:05,VALID,1002.71,VALID,0,VALID,93.0661,VALID,0,VALID,22.6477,VALID,90,VALID,0,
2009-07-21, 01:37:05,VALID,1002.7,VALID,0,VALID,93.1043,VALID,0,VALID,22.6672,VALID,80,VALID,0,
2009-07-21, 01:38:05,VALID,1002.68,VALID,0,VALID,93.1577,VALID,0,VALID,22.7062,VALID,80,VALID,0,
2009-07-21, 01:39:04,VALID,1002.65,VALID,0,VALID,93.089,VALID,0,VALID,22.7062,VALID,71,VALID,0,
2009-07-21, 01:40:04,VALID,1002.65,VALID,0,VALID,92.6846,VALID,0,VALID,22.6672,VALID,25,VALID,0.894531,
2009-07-21, 01:41:04,VALID,1002.66,VALID,0,VALID,92.6312,VALID,0,VALID,22.6282,VALID,14,VALID,0.992969,
2009-07-21, 01:42:04,VALID,1002.66,VALID,0,VALID,92.6999,VALID,0,VALID,22.6282,VALID,8,VALID,0.930469,
2009-07-21, 01:43:04,VALID,1002.63,VALID,0,VALID,92.8525,VALID,0,VALID,22.6282,VALID,2,VALID,1.02656,
2009-07-21, 01:44:04,VALID,1002.63,VALID,0,VALID,92.9059,VALID,0,VALID,22.6282,VALID,2,VALID,1.05234,
2009-07-21, 01:45:04,VALID,1002.62,VALID,0,VALID,92.8525,VALID,0,VALID,22.6689,VALID,9,VALID,0.921094,
2009-07-21, 01:46:04,VALID,1002.6,VALID,0,VALID,92.7838,VALID,0,VALID,22.6087,VALID,18,VALID,1.13516,
2009-07-21, 01:47:04,VALID,1002.53,VALID,0,VALID,92.7685,VALID,0,VALID,22.5892,VALID,30,VALID,1.28008,
2009-07-21, 01:48:04,VALID,1002.46,VALID,0,VALID,92.7762,VALID,0,VALID,22.5696,VALID,37,VALID,1.39766,
2009-07-21, 01:49:04,VALID,1002.47,VALID,0,VALID,92.7838,VALID,0,VALID,22.5696,VALID,37,VALID,1.29141,
2009-07-21, 01:50:04,VALID,1002.41,VALID,0,VALID,92.7533,VALID,0,VALID,22.5892,VALID,31,VALID,1.16836,
2009-07-21, 01:51:04,VALID,1002.43,VALID,0,VALID,92.7304,VALID,0,VALID,22.5696,VALID,31,VALID,0.922656,
2009-07-21, 01:52:04,VALID,1002.44,VALID,0,VALID,92.7457,VALID,0,VALID,22.5501,VALID,23,VALID,0.761328,
2009-07-21, 01:53:04,VALID,1002.5,VALID,0,VALID,92.7304,VALID,0,VALID,22.5501,VALID,17,VALID,0.670703,
2009-07-21, 01:54:04,VALID,1002.48,VALID,0,VALID,92.6999,VALID,0,VALID,22.5306,VALID,8,VALID,0.626562,
2009-07-21, 01:55:04,VALID,1002.53,VALID,0,VALID,92.7151,VALID,0,VALID,22.5111,VALID,7,VALID,0.675781,
2009-07-21, 01:56:04,VALID,1002.57,VALID,0,VALID,92.7075,VALID,0,VALID,22.5111,VALID,3,VALID,0.648828,
2009-07-21, 01:57:04,VALID,1002.53,VALID,0,VALID,92.6617,VALID,0,VALID,22.5306,VALID,3,VALID,0.576953,
2009-07-21, 01:58:04,VALID,1002.54,VALID,0,VALID,92.6083,VALID,0,VALID,22.5306,VALID,3,VALID,0.339063,
2009-07-21, 01:59:04,VALID,1002.57,VALID,0,VALID,92.5854,VALID,0,VALID,22.5714,VALID,3,VALID,0.294141,
2009-07-21, 02:00:04,VALID,1002.56,VALID,0,VALID,92.5626,VALID,0,VALID,22.5519,VALID,3,VALID,0.535156,
2009-07-21, 02:01:04,VALID,1002.53,VALID,0,VALID,92.4252,VALID,0,VALID,22.5519,VALID,8,VALID,0.855469,
2009-07-21, 02:02:04,VALID,1002.52,VALID,0,VALID,92.326,VALID,0,VALID,22.5306,VALID,28,VALID,1.17734,
2009-07-21, 02:03:04,VALID,1002.51,VALID,0,VALID,92.2345,VALID,0,VALID,22.5306,VALID,34,VALID,1.31953,
2009-07-21, 02:04:04,VALID,1002.52,VALID,0,VALID,92.1887,VALID,0,VALID,22.5909,VALID,36,VALID,1.42266,
2009-07-21, 02:05:04,VALID,1002.52,VALID,0,VALID,92.1887,VALID,0,VALID,22.6104,VALID,36,VALID,1.29414,
2009-07-21, 02:06:04,VALID,1002.52,VALID,0,VALID,92.1353,VALID,0,VALID,22.6104,VALID,37,VALID,1.29844,
2009-07-21, 02:07:04,VALID,1002.5,VALID,0,VALID,92.2116,VALID,0,VALID,22.6299,VALID,38,VALID,1.19687,
2009-07-21, 02:08:04,VALID,1002.51,VALID,0,VALID,92.3489,VALID,0,VALID,22.6282,VALID,46,VALID,1.0707,
2009-07-21, 02:09:04,VALID,1002.55,VALID,0,VALID,92.4557,VALID,0,VALID,22.6087,VALID,49,VALID,0.859766,
2009-07-21, 02:10:04,VALID,1002.54,VALID,0,VALID,92.4634,VALID,0,VALID,22.6087,VALID,50,VALID,0.834375,
2009-07-21, 02:11:04,VALID,1002.54,VALID,0,VALID,92.5015,VALID,0,VALID,22.6087,VALID,50,VALID,0.504687,
2009-07-21, 02:12:04,VALID,1002.53,VALID,0,VALID,92.532,VALID,0,VALID,22.6299,VALID,50,VALID,0.560156,
2009-07-21, 02:13:04,VALID,1002.51,VALID,0,VALID,92.5397,VALID,0,VALID,22.5909,VALID,50,VALID,0.614844,
2009-07-21, 02:14:04,VALID,1002.49,VALID,0,VALID,92.5778,VALID,0,VALID,22.5892,VALID,50,VALID,0.690234,
2009-07-21, 02:15:04,VALID,1002.45,VALID,0,VALID,92.5473,VALID,0,VALID,22.5696,VALID,50,VALID,0.869922,
2009-07-21, 02:16:04,VALID,1002.44,VALID,0,VALID,92.532,VALID,0,VALID,22.5909,VALID,50,VALID,0.802344,
2009-07-21, 02:17:04,VALID,1002.41,VALID,0,VALID,92.5244,VALID,0,VALID,22.5696,VALID,50,VALID,0.826172,
2009-07-21, 02:18:04,VALID,1002.39,VALID,0,VALID,92.5397,VALID,0,VALID,22.5909,VALID,50,VALID,0.655078,
2009-07-21, 02:19:04,VALID,1002.41,VALID,0,VALID,92.6083,VALID,0,VALID,22.5714,VALID,56,VALID,0.437891,
2009-07-21, 02:20:04,VALID,1002.39,VALID,0,VALID,92.7228,VALID,0,VALID,22.5714,VALID,86,VALID,0.562109,
2009-07-21, 02:21:04,VALID,1002.44,VALID,0,VALID,92.8143,VALID,0,VALID,22.5501,VALID,91,VALID,0.664453,
2009-07-21, 02:22:04,VALID,1002.46,VALID,0,VALID,92.9364,VALID,0,VALID,22.5696,VALID,92,VALID,0.435156,
2009-07-21, 02:23:04,VALID,1002.43,VALID,0,VALID,92.9898,VALID,0,VALID,22.5696,VALID,92,VALID,0.323438,
2009-07-21, 02:24:04,VALID,1002.44,VALID,0,VALID,92.9974,VALID,0,VALID,22.5892,VALID,92,VALID,0.332812,
2009-07-21, 02:25:04,VALID,1002.46,VALID,0,VALID,93.0127,VALID,0,VALID,22.5892,VALID,92,VALID,0.259766,
2009-07-21, 02:26:04,VALID,1002.43,VALID,0,VALID,93.0432,VALID,0,VALID,22.6104,VALID,92,VALID,0.264062,
2009-07-21, 02:27:04,VALID,1002.46,VALID,0,VALID,93.0508,VALID,0,VALID,22.6104,VALID,92,VALID,0.201172,
2009-07-21, 02:28:04,VALID,1002.44,VALID,0,VALID,93.1271,VALID,0,VALID,22.6087,VALID,92,VALID,0.349609,
2009-07-21, 02:29:04,VALID,1002.46,VALID,0,VALID,93.2416,VALID,0,VALID,22.6282,VALID,98,VALID,0.677344,
2009-07-21, 02:30:04,VALID,1002.48,VALID,0,VALID,93.2874,VALID,0,VALID,22.6494,VALID,99,VALID,0.512109,
2009-07-21, 02:31:04,VALID,1002.48,VALID,0,VALID,93.2568,VALID,0,VALID,22.6689,VALID,99,VALID,0.405078,
2009-07-21, 02:32:04,VALID,1002.51,VALID,0,VALID,93.234,VALID,0,VALID,22.6884,VALID,99,VALID,0.330078,
2009-07-21, 02:33:04,VALID,1002.51,VALID,0,VALID,93.1882,VALID,0,VALID,22.6672,VALID,99,VALID,0.248047,
2009-07-21, 02:34:04,VALID,1002.48,VALID,0,VALID,93.1577,VALID,0,VALID,22.6672,VALID,69,VALID,0.4625,
2009-07-21, 02:35:04,VALID,1002.49,VALID,0,VALID,93.089,VALID,0,VALID,22.6884,VALID,43,VALID,0.583203,
2009-07-21, 02:36:04,VALID,1002.45,VALID,0,VALID,93.0432,VALID,0,VALID,22.6884,VALID,52,VALID,0.758984,
2009-07-21, 02:37:04,VALID,1002.44,VALID,0,VALID,92.9745,VALID,0,VALID,22.6477,VALID,54,VALID,0.540234,
2009-07-21, 02:38:04,VALID,1002.46,VALID,0,VALID,92.9364,VALID,0,VALID,22.6494,VALID,75,VALID,0.480469,
2009-07-21, 02:39:04,VALID,1002.41,VALID,0,VALID,92.7991,VALID,0,VALID,22.6282,VALID,50,VALID,0.639453,
2009-07-21, 02:40:04,VALID,1002.42,VALID,0,VALID,92.8067,VALID,0,VALID,22.6477,VALID,54,VALID,1.0332,
2009-07-21, 02:41:04,VALID,1002.37,VALID,0,VALID,92.7838,VALID,0,VALID,22.7079,VALID,56,VALID,0.912109,
2009-07-21, 02:42:04,VALID,1002.37,VALID,0,VALID,92.6923,VALID,0,VALID,22.7452,VALID,83,VALID,0.957422,
2009-07-21, 02:43:04,VALID,1002.34,VALID,0,VALID,92.4328,VALID,0,VALID,22.8232,VALID,91,VALID,1.26328,
2009-07-21, 02:44:04,VALID,1002.32,VALID,0,VALID,92.0971,VALID,0,VALID,22.9013,VALID,86,VALID,1.01719,
2009-07-21, 02:45:04,VALID,1002.33,VALID,0,VALID,91.7385,VALID,0,VALID,22.9793,VALID,89,VALID,1.09609,
2009-07-21, 02:46:04,VALID,1002.28,VALID,0,VALID,91.0671,VALID,0,VALID,23.0769,VALID,95,VALID,1.08633,
2009-07-21, 02:47:04,VALID,1002.27,VALID,0,VALID,89.8998,VALID,0,VALID,23.1549,VALID,94,VALID,2.4582,
2009-07-21, 02:48:04,VALID,1002.27,VALID,0,VALID,89.2589,VALID,0,VALID,23.3518,VALID,101,VALID,1.80078,
2009-07-21, 02:49:04,VALID,1002.23,VALID,0,VALID,88.8469,VALID,0,VALID,23.4884,VALID,95,VALID,1.34961,
2009-07-21, 02:50:04,VALID,1002.24,VALID,0,VALID,88.5341,VALID,0,VALID,23.5451,VALID,115,VALID,1.24805,
2009-07-21, 02:51:04,VALID,1002.22,VALID,0,VALID,88.1068,VALID,0,VALID,23.5841,VALID,110,VALID,2.17578,
2009-07-21, 02:52:04,VALID,1002.22,VALID,0,VALID,87.878,VALID,0,VALID,23.6427,VALID,121,VALID,1.58086,
2009-07-21, 02:53:04,VALID,1002.21,VALID,0,VALID,87.7254,VALID,0,VALID,23.7012,VALID,110,VALID,1.37422,
2009-07-21, 02:54:04,VALID,1002.21,VALID,0,VALID,87.878,VALID,0,VALID,23.7207,VALID,119,VALID,0.775391,
2009-07-21, 02:55:04,VALID,1002.2,VALID,0,VALID,87.8551,VALID,0,VALID,23.7012,VALID,115,VALID,0.487891,
2009-07-21, 02:56:04,VALID,1002.22,VALID,0,VALID,87.9543,VALID,0,VALID,23.703,VALID,110,VALID,0.314063,
2009-07-21, 02:57:04,VALID,1002.23,VALID,0,VALID,88.0992,VALID,0,VALID,23.6622,VALID,111,VALID,0.154297,
2009-07-21, 02:58:04,VALID,1002.22,VALID,0,VALID,88.2213,VALID,0,VALID,23.664,VALID,111,VALID,0,
2009-07-21, 02:59:04,VALID,1002.2,VALID,0,VALID,88.5265,VALID,0,VALID,23.6036,VALID,111,VALID,0,
2009-07-21, 03:00:04,VALID,1002.22,VALID,0,VALID,88.6867,VALID,0,VALID,23.5451,VALID,110,VALID,0.548437,
2009-07-21, 03:01:04,VALID,1002.25,VALID,0,VALID,89.0911,VALID,0,VALID,23.428,VALID,110,VALID,0.649219,
2009-07-21, 03:02:04,VALID,1002.23,VALID,0,VALID,89.3886,VALID,0,VALID,23.3695,VALID,110,VALID,0.608203,
2009-07-21, 03:03:04,VALID,1002.26,VALID,0,VALID,89.6633,VALID,0,VALID,23.311,VALID,330,VALID,0.600391,
2009-07-21, 03:04:04,VALID,1002.24,VALID,0,VALID,89.9151,VALID,0,VALID,23.2737,VALID,309,VALID,0.401563,
2009-07-21, 03:05:04,VALID,1002.21,VALID,0,VALID,90.1821,VALID,0,VALID,23.2134,VALID,309,VALID,0.200391,
2009-07-21, 03:06:04,VALID,1002.22,VALID,0,VALID,90.3194,VALID,0,VALID,23.1762,VALID,309,VALID,0.116797,
2009-07-21, 03:07:04,VALID,1002.25,VALID,0,VALID,90.3423,VALID,0,VALID,23.1762,VALID,309,VALID,0.0449219,
2009-07-21, 03:08:04,VALID,1002.23,VALID,0,VALID,90.4491,VALID,0,VALID,23.1354,VALID,309,VALID,0.165234,
2009-07-21, 03:09:04,VALID,1002.22,VALID,0,VALID,90.4949,VALID,0,VALID,23.1549,VALID,309,VALID,0.217969,
2009-07-21, 03:10:04,VALID,1002.23,VALID,0,VALID,90.4797,VALID,0,VALID,23.1371,VALID,309,VALID,0.264453,
2009-07-21, 03:11:04,VALID,1002.23,VALID,0,VALID,90.617,VALID,0,VALID,23.1159,VALID,309,VALID,0.150391,
2009-07-21, 03:12:04,VALID,1002.26,VALID,0,VALID,90.7314,VALID,0,VALID,23.0964,VALID,309,VALID,0.322266,
2009-07-21, 03:13:04,VALID,1002.27,VALID,0,VALID,90.8077,VALID,0,VALID,23.0964,VALID,309,VALID,0.292188,
2009-07-21, 03:14:04,VALID,1002.26,VALID,0,VALID,90.9374,VALID,0,VALID,23.0769,VALID,309,VALID,0.0824219,
2009-07-21, 03:15:04,VALID,1002.26,VALID,0,VALID,91.09,VALID,0,VALID,23.0573,VALID,309,VALID,0.273047,
2009-07-21, 03:16:04,VALID,1002.24,VALID,0,VALID,91.1587,VALID,0,VALID,23.0378,VALID,309,VALID,0.453125,
2009-07-21, 03:17:04,VALID,1002.23,VALID,0,VALID,91.3647,VALID,0,VALID,23.0183,VALID,312,VALID,0.648047,
2009-07-21, 03:18:04,VALID,1002.23,VALID,0,VALID,91.4944,VALID,0,VALID,23.0183,VALID,314,VALID,0.6625,
2009-07-21, 03:19:04,VALID,1002.22,VALID,0,VALID,91.4944,VALID,0,VALID,22.9793,VALID,336,VALID,0.723047,
2009-07-21, 03:20:04,VALID,1002.23,VALID,0,VALID,91.6165,VALID,0,VALID,22.9811,VALID,336,VALID,0.486719,
2009-07-21, 03:21:04,VALID,1002.23,VALID,0,VALID,91.7691,VALID,0,VALID,22.9598,VALID,336,VALID,0.307813,
2009-07-21, 03:22:04,VALID,1002.21,VALID,0,VALID,91.8759,VALID,0,VALID,22.9403,VALID,336,VALID,0.0902344,
2009-07-21, 03:23:04,VALID,1002.22,VALID,0,VALID,91.9522,VALID,0,VALID,22.9013,VALID,336,VALID,0.225,
2009-07-21, 03:24:04,VALID,1002.21,VALID,0,VALID,92.059,VALID,0,VALID,22.8818,VALID,336,VALID,0.389062,
2009-07-21, 03:25:04,VALID,1002.18,VALID,0,VALID,92.1429,VALID,0,VALID,22.903,VALID,336,VALID,0.548828,
2009-07-21, 03:26:04,VALID,1002.16,VALID,0,VALID,92.1658,VALID,0,VALID,22.9208,VALID,336,VALID,0.672656,
2009-07-21, 03:27:04,VALID,1002.15,VALID,0,VALID,92.2268,VALID,0,VALID,22.9615,VALID,18,VALID,0.785937,
2009-07-21, 03:28:04,VALID,1002.17,VALID,0,VALID,92.2803,VALID,0,VALID,22.9403,VALID,26,VALID,0.858984,
2009-07-21, 03:29:04,VALID,1002.14,VALID,0,VALID,92.2497,VALID,0,VALID,22.9793,VALID,26,VALID,0.7625,
2009-07-21, 03:30:04,VALID,1002.15,VALID,0,VALID,92.2879,VALID,0,VALID,22.9793,VALID,26,VALID,0.819141,
2009-07-21, 03:31:04,VALID,1002.14,VALID,0,VALID,92.2955,VALID,0,VALID,22.9988,VALID,25,VALID,0.932813,
2009-07-21, 03:32:04,VALID,1002.15,VALID,0,VALID,92.326,VALID,0,VALID,22.9988,VALID,21,VALID,1.03984,
2009-07-21, 03:33:04,VALID,1002.17,VALID,0,VALID,92.265,VALID,0,VALID,22.9793,VALID,14,VALID,0.903125,
2009-07-21, 03:34:04,VALID,1002.16,VALID,0,VALID,92.326,VALID,0,VALID,22.9598,VALID,9,VALID,0.587891,
2009-07-21, 03:35:04,VALID,1002.16,VALID,0,VALID,92.326,VALID,0,VALID,22.9403,VALID,9,VALID,0.715234,
2009-07-21, 03:36:04,VALID,1002.18,VALID,0,VALID,92.3871,VALID,0,VALID,22.9208,VALID,9,VALID,0.649609,
2009-07-21, 03:37:04,VALID,1002.18,VALID,0,VALID,92.3566,VALID,0,VALID,22.9208,VALID,4,VALID,0.518359,
2009-07-21, 03:38:04,VALID,1002.16,VALID,0,VALID,92.2574,VALID,0,VALID,22.9208,VALID,4,VALID,0.571094,
2009-07-21, 03:39:04,VALID,1002.14,VALID,0,VALID,92.265,VALID,0,VALID,22.9208,VALID,4,VALID,0.160938,
2009-07-21, 03:40:04,VALID,1002.16,VALID,0,VALID,92.2803,VALID,0,VALID,22.9208,VALID,4,VALID,0.00195313,
2009-07-21, 03:41:04,VALID,1002.13,VALID,0,VALID,92.1734,VALID,0,VALID,22.9225,VALID,4,VALID,0.3625,
2009-07-21, 03:42:04,VALID,1002.11,VALID,0,VALID,92.0437,VALID,0,VALID,22.8623,VALID,4,VALID,0.517578,
2009-07-21, 03:43:04,VALID,1002.09,VALID,0,VALID,92.0437,VALID,0,VALID,22.864,VALID,15,VALID,0.692578,
2009-07-21, 03:44:04,VALID,1002.08,VALID,0,VALID,92.1734,VALID,0,VALID,22.8623,VALID,22,VALID,0.649219,
2009-07-21, 03:45:04,VALID,1002.06,VALID,0,VALID,92.1506,VALID,0,VALID,22.8623,VALID,22,VALID,0.776563,
2009-07-21, 03:46:04,VALID,1002.07,VALID,0,VALID,92.1353,VALID,0,VALID,22.8623,VALID,22,VALID,0.776172,
2009-07-21, 03:47:04,VALID,1002.06,VALID,0,VALID,92.1506,VALID,0,VALID,22.8623,VALID,22,VALID,0.846875,